Flight Track Log - Related Links

Times and Time Zones

All times are in EDT time to prevent confusion due to time zone crossing. See the SWA750 flight status page for this flight to view local times or setup timezone preferences in your user account.

Time Position Orientation Groundspeed Altitude Reporting Facility
EDT Latitude Longitude Course Direction KTS MPH feet Rate Location/Type
Mon 10:03:42 PM 39.8333 -104.7833 250° West 203 234 8,300  Level Denver TRACON
Mon 10:04:42 PM 39.8000 -104.8667 243° Southwest 243 280 10,800 2,148 Climbing Denver TRACON
Mon 10:05:03 PM 39.7983 -104.8917 265° West 249 287 11,200 2,096 Climbing Denver Center
Mon 10:06:05 PM 39.7619 -105.0000 246° West 329 379 13,700 3,435 Climbing Denver Center
Mon 10:07:07 PM 39.7211 -105.1211 246° West 341 392 18,300 3,339 Climbing Denver Center
Mon 10:08:09 PM 39.6819 -105.2353 246° West 349 402 20,600 2,468 Climbing Denver Center
Mon 10:09:00 PM 39.5853 -105.4933 250° West  Level FlightAware Approximate
Mon 10:09:11 PM 39.6378 -105.3669 246° West 369 425 23,400  Level Denver Center
Mon 10:10:13 PM 39.5981 -105.4808 246° West 378 435 25,300 1,935 Climbing Denver Center
Mon 10:11:15 PM 39.5450 -105.6397 247° West 415 478 27,400 1,839 Climbing Denver Center
Mon 10:12:17 PM 39.5050 -105.7842 250° West 423 487 29,100 1,659 Climbing Denver Center
Mon 10:13:18 PM 39.4664 -105.9311 251° West 425 489 30,800 1,854 Climbing Denver Center
Mon 10:14:20 PM 39.4253 -106.0781 250° West 429 494 32,900 1,839 Climbing Denver Center
Mon 10:15:22 PM 39.3831 -106.2256 250° West 427 491 34,600 1,790 Climbing Denver Center
Mon 10:16:24 PM 39.3444 -106.3617 250° West 422 486 36,600 1,500 Climbing Denver Center
Mon 10:17:26 PM 39.3008 -106.5167 250° West 413 475 37,700 677 Climbing Denver Center
Mon 10:18:28 PM 39.2617 -106.6519 250° West 418 481 38,000 145 Climbing Denver Center
Mon 10:19:30 PM 39.1975 -106.7914 239° Southwest 406 467 38,000  Level Denver Center
Mon 10:20:32 PM 39.1233 -106.9050 230° Southwest 425 489 38,000  Level Denver Center
Mon 10:21:33 PM 39.0394 -107.0367 231° Southwest 426 490 38,000  Level Denver Center
Mon 10:22:35 PM 38.9681 -107.1469 230° Southwest 420 483 38,000  Level Denver Center
Mon 10:23:37 PM 38.8833 -107.2786 230° Southwest 422 486 38,000  Level Denver Center
Mon 10:24:51 PM 38.7989 -107.4078 230° Southwest 421 484 38,000  Level Denver Center
Mon 10:25:53 PM 38.7131 -107.5381 230° Southwest 425 489 38,000 195 Level Denver Center
Mon 10:26:54 PM 38.6514 -107.6328 230° Southwest 428 493 38,400 878 Climbing Denver Center
Mon 10:27:56 PM 38.5653 -107.7639 230° Southwest 430 495 39,800 774 Climbing Denver Center
Mon 10:28:58 PM 38.4792 -107.8944 230° Southwest 429 494 40,000 98 Climbing Denver Center
Mon 10:29:59 PM 38.4050 -108.0064 230° Southwest 430 495 40,000  Level Denver Center
Mon 10:31:01 PM 38.3178 -108.1381 230° Southwest 434 499 40,000  Level Denver Center
Mon 10:32:02 PM 38.2431 -108.2503 230° Southwest 434 499 40,000  Level Denver Center
Mon 10:33:04 PM 38.1547 -108.3806 229° Southwest 434 499 40,000  Level Denver Center
Mon 10:34:06 PM 38.0800 -108.4942 230° Southwest 437 503 40,000  Level Denver Center
Mon 10:35:07 PM 38.0019 -108.6067 229° Southwest 433 498 40,000  Level Denver Center
Mon 10:36:09 PM 37.9169 -108.7306 229° Southwest 421 484 40,000  Level Denver Center
Mon 10:37:11 PM 37.8436 -108.8383 229° Southwest 422 486 40,000  Level Denver Center
Mon 10:38:12 PM 37.7600 -108.9619 229° Southwest 417 480 40,000  Level Denver Center
Mon 10:39:14 PM 37.6869 -109.0656 228° Southwest 413 475 40,000  Level Denver Center
Mon 10:40:15 PM 37.6150 -109.1719 230° Southwest 416 479 40,000  Level Denver Center
Mon 10:41:17 PM 37.5283 -109.2964 229° Southwest 423 487 40,000  Level Denver Center
Mon 10:42:18 PM 37.4547 -109.4039 229° Southwest 424 488 40,000  Level Denver Center
Mon 10:43:20 PM 37.3681 -109.5281 229° Southwest 424 488 40,000  Level Denver Center
Mon 10:44:21 PM 37.2931 -109.6347 229° Southwest 424 488 40,000  Level Denver Center
Mon 10:45:22 PM 37.2186 -109.7419 229° Southwest 427 491 40,000  Level Denver Center
Mon 10:46:24 PM 37.1564 -109.8864 242° Southwest 422 486 40,000  Level Denver Center
Mon 10:47:37 PM 37.1075 -110.0111 244° Southwest 417 480 40,000  Level Denver Center
Mon 10:48:39 PM 37.0411 -110.1769 243° Southwest 425 489 40,000  Level Denver Center
Mon 10:49:40 PM 36.9889 -110.3078 243° Southwest 423 487 40,000  Level Denver Center
Mon 10:50:42 PM 36.9358 -110.4408 244° Southwest 426 490 40,000  Level Denver Center
Mon 10:51:43 PM 36.8831 -110.5736 244° Southwest 428 493 40,000  Level Denver Center
Mon 10:52:44 PM 36.8269 -110.7108 243° Southwest 441 507 40,000  Level Denver Center
Mon 10:53:46 PM 36.7578 -110.8789 243° Southwest 452 520 40,000  Level Denver Center
Mon 10:54:47 PM 36.7000 -111.0203 243° Southwest 455 524 40,000  Level Denver Center
Mon 10:55:48 PM 36.6422 -111.1617 243° Southwest 457 526 40,000  Level Denver Center
Mon 10:56:50 PM 36.5850 -111.3019 243° Southwest 457 526 40,000  Level Denver Center
Mon 10:57:51 PM 36.5281 -111.4442 244° Southwest 457 526 40,000  Level Denver Center
Mon 10:58:52 PM 36.4747 -111.5853 245° Southwest 455 524 40,000  Level Denver Center
Mon 10:59:55 PM 36.4186 -111.7258 244° Southwest 454 522 40,000  Level Denver Center
Mon 11:00:56 PM 36.3619 -111.8681 244° Southwest 458 527 40,000  Level Denver Center
Mon 11:01:48 PM 36.3069 -112.0083 244° Southwest 452 520 40,000  Level Los Angeles Center
Mon 11:02:50 PM 36.2508 -112.1472 243° Southwest 451 519 40,000  Level Los Angeles Center
Mon 11:03:52 PM 36.1950 -112.2861 244° Southwest 451 519 40,000  Level Los Angeles Center
Mon 11:04:53 PM 36.1375 -112.4292 244° Southwest 456 525 40,000  Level Los Angeles Center
Mon 11:05:55 PM 36.0811 -112.5694 244° Southwest 455 524 40,000  Level Los Angeles Center
Mon 11:06:56 PM 36.0242 -112.7089 243° Southwest 455 524 40,000  Level Los Angeles Center
Mon 11:07:58 PM 35.9669 -112.8478 243° Southwest 454 522 40,000  Level Los Angeles Center
Mon 11:08:59 PM 35.9042 -113.0011 243° Southwest 450 518 40,000  Level Los Angeles Center
Mon 11:10:01 PM 35.8483 -113.1378 243° Southwest 451 519 40,000  Level Los Angeles Center
Mon 11:11:03 PM 35.7911 -113.2736 243° Southwest 453 521 40,000  Level Los Angeles Center
Mon 11:12:04 PM 35.7350 -113.4094 243° Southwest 452 520 40,000  Level Los Angeles Center
Mon 11:13:06 PM 35.6669 -113.5733 243° Southwest 453 521 40,000  Level Los Angeles Center
Mon 11:14:08 PM 35.6100 -113.7092 243° Southwest 452 520 40,000  Level Los Angeles Center
Mon 11:15:10 PM 35.5542 -113.8439 243° Southwest 449 517 40,000  Level Los Angeles Center
Mon 11:16:11 PM 35.4967 -113.9800 243° Southwest 451 519 40,000  Level Los Angeles Center
Mon 11:17:13 PM 35.4278 -114.1392 242° Southwest 450 518 40,000  Level Los Angeles Center
Mon 11:18:27 PM 35.3703 -114.2750 243° Southwest 449 517 40,000  Level Los Angeles Center
Mon 11:19:29 PM 35.3000 -114.4378 242° Southwest 450 518 40,000  Level Los Angeles Center
Mon 11:20:31 PM 35.2422 -114.5756 243° Southwest 453 521 40,000  Level Los Angeles Center
Mon 11:21:32 PM 35.1828 -114.7097 242° Southwest 450 518 40,000  Level Los Angeles Center
Mon 11:22:34 PM 35.1225 -114.8494 242° Southwest 455 524 40,000  Level Los Angeles Center
Mon 11:23:36 PM 35.0639 -114.9853 242° Southwest 453 521 40,000  Level Los Angeles Center
Mon 11:24:38 PM 35.0053 -115.1200 242° Southwest 450 518 40,000  Level Los Angeles Center
Mon 11:25:39 PM 34.9472 -115.2525 242° Southwest 450 518 40,000  Level Los Angeles Center
Mon 11:26:41 PM 34.8750 -115.4144 242° Southwest 447 514 40,000 -387 Level Los Angeles Center
Mon 11:27:43 PM 34.8158 -115.5478 242° Southwest 446 513 39,200 -919 Descending Los Angeles Center
Mon 11:28:45 PM 34.7575 -115.6808 242° Southwest 444 511 38,100 -968 Descending Los Angeles Center
Mon 11:29:47 PM 34.7006 -115.8081 241° Southwest 441 507 37,200 -927 Descending Los Angeles Center
Mon 11:30:48 PM 34.6422 -115.9375 241° Southwest 438 504 36,200 -976 Descending Los Angeles Center
Mon 11:31:50 PM 34.5847 -116.0675 242° Southwest 436 502 35,200 -919 Descending Los Angeles Center
Mon 11:32:52 PM 34.5264 -116.1961 241° Southwest 435 501 34,300 -927 Descending Los Angeles Center
Mon 11:33:53 PM 34.4678 -116.3236 241° Southwest 434 499 33,300 -1,548 Descending Los Angeles Center
Mon 11:34:56 PM 34.3989 -116.4747 241° Southwest 427 491 31,100 -1,887 Descending Los Angeles Center
Mon 11:35:57 PM 34.3419 -116.5989 241° Southwest 422 486 29,400 -2,341 Descending Los Angeles Center
Mon 11:36:59 PM 34.2836 -116.7281 241° Southwest 435 501 26,300 -2,855 Descending Los Angeles Center
Mon 11:38:01 PM 34.2242 -116.8564 241° Southwest 436 502 23,500 -2,613 Descending Los Angeles Center
Mon 11:39:03 PM 34.1669 -116.9817 241° Southwest 428 493 20,900 -2,226 Descending Los Angeles Center
Mon 11:40:05 PM 34.1061 -117.1111 240° Southwest 405 466 18,900 -1,597 Descending Los Angeles Center
Mon 11:41:07 PM 34.0572 -117.2211 242° Southwest 371 427 17,600 -1,512 Descending Los Angeles Center
Mon 11:42:08 PM 34.0403 -117.3300 259° West 343 395 15,800 -1,659 Descending Los Angeles Center
Mon 11:43:10 PM 34.0317 -117.4186 263° West 334 384 14,200 -1,742 Descending Los Angeles Center
Mon 11:44:12 PM 34.0342 -117.5611 271° West 312 359 12,200 -1,984 Descending Los Angeles Center
Mon 11:45:14 PM 34.0333 -117.6667 269° West 262 302 10,100 -1,426 Descending Southern California TRACON
Mon 11:46:14 PM 34.0167 -117.7500 256° West 251 289 9,300 -850 Descending Southern California TRACON
Mon 11:47:14 PM 34.0167 -117.8333 270° West 225 259 8,400 -850 Descending Southern California TRACON
Mon 11:48:14 PM 34.0000 -117.9000 253° West 217 250 7,600 -900 Descending Southern California TRACON
Mon 11:49:14 PM 34.0000 -117.9667 270° West 200 230 6,600 -900 Descending Southern California TRACON
Mon 11:50:14 PM 33.9833 -118.0333 253° West 194 223 5,800 -800 Descending Southern California TRACON
Mon 11:51:14 PM 33.9833 -118.1000 270° West 182 209 5,000 -800 Descending Southern California TRACON
Mon 11:52:14 PM 33.9833 -118.1500 270° West 172 198 4,200 -867 Descending Southern California TRACON
Mon 11:52:37 PM 33.9758 -118.1714 247° West 179 206 3,800 -918 Descending Los Angeles Center
Mon 11:53:39 PM 33.9703 -118.2286 263° West 176 203 2,900 -829 Descending Los Angeles Center
Mon 11:54:40 PM 33.9647 -118.2825 263° West 170 196 2,100 -829 Descending Los Angeles Center
Mon 11:55:42 PM 33.9594 -118.3356 263° West 165 190 1,200 -780 Descending Los Angeles Center
Mon 11:56:43 PM 33.9556 -118.3811 264° West 151 174 500 -488 Descending Los Angeles Center
Mon 11:57:45 PM 33.9494 -118.4308 262° West 144 166 200 -290 Descending Los Angeles Center
Mon 11:59:00 PM 33.9425 -118.4081 259° West  Level Estimated

Login

Don't have an account? Register now (free) for customized features, flight alerts, and more!